GFSNW_250_spd_000.txt.gz
Wind_Speed
89 91 93 96 102 103 103 106 107 110 114 116 112 106 104 98 95 91 84 82 82 79 76 71 73 68 66 58 70 80 83 91 97 94 93 92 89 85 81 74 59 55 52 53
99 102 105 105 108 112 116 117 113 113 120 117 118 114 110 105 99 100 89 87 83 81 76 79 75 72 70 66 65 74 82 83 93 99 99 98 95 87 82 76 70 62 58 57
108 112 116 119 123 124 127 129 125 119 118 121 120 119 110 111 106 103 91 87 85 84 80 74 76 74 75 71 70 68 76 82 87 95 100 99 99 93 88 86 78 68 60 63
120 120 119 123 126 125 130 135 131 131 128 125 119 121 115 105 107 106 96 89 87 82 82 78 75 77 78 75 70 65 68 80 83 91 98 104 102 97 96 92 82 78 67 65
127 128 124 129 131 134 137 138 135 134 129 129 126 124 116 113 105 103 95 90 89 86 83 80 77 78 79 77 73 67 62 74 80 87 94 106 107 103 99 95 92 85 80 70
128 132 130 125 121 113 105 104 101 102 107 114 113 119 116 118 112 102 98 93 87 83 82 80 79 74 79 79 71 68 63 65 75 80 93 100 109 105 103 97 96 92 86 73
117 105 98 92 90 85 80 79 78 77 81 82 88 95 108 115 116 109 104 99 93 86 84 82 84 78 78 77 73 71 62 61 66 76 86 97 95 103 104 103 98 94 92 86
90 85 81 77 71 67 64 63 63 63 65 67 70 76 82 103 105 113 109 105 100 91 88 83 82 80 79 75 73 69 64 61 61 66 80 84 87 98 107 107 101 96 91 89
75 71 68 62 59 55 54 53 53 53 57 59 60 63 68 75 81 90 100 103 104 97 93 88 86 82 74 75 73 72 62 59 60 62 70 75 88 88 94 104 102 95 93 86
65 62 56 52 49 46 45 43 41 44 50 53 53 57 58 63 71 78 79 83 98 101 98 89 85 82 77 74 69 69 63 60 56 59 65 71 76 82 87 97 93 98 93 92
57 54 51 48 44 40 40 36 35 38 43 43 48 48 53 58 62 66 71 80 92 97 96 88 83 81 74 71 68 65 62 57 57 56 57 62 64 71 82 85 90 97 95 94
51 47 44 40 37 34 33 30 29 33 34 35 39 43 44 50 53 54 60 72 84 94 93 88 81 77 74 69 68 64 60 58 54 55 55 49 52 61 66 72 82 92 95 93
43 39 36 34 30 28 26 24 25 26 25 30 34 36 41 45 49 50 57 63 75 86 89 83 80 77 74 71 70 66 62 60 54 50 49 42 49 52 58 66 73 82 91 91
35 31 28 26 23 21 19 19 20 20 23 27 30 32 37 42 49 52 51 57 66 79 83 82 79 75 72 74 71 66 61 58 50 44 42 43 46 50 54 59 66 72 83 88
28 24 20 16 13 12 12 12 15 19 23 26 28 32 37 42 47 48 51 55 63 76 81 82 80 76 77 71 71 61 54 50 51 42 40 33 34 44 59 50 54 73 73 80
18 13 9 6 6 7 7 12 16 19 22 26 28 32 36 41 46 49 50 56 64 70 76 76 74 71 76 72 68 65 58 46 47 45 38 34 35 29 34 44 46 52 61 74
10 6 1 4 7 8 10 14 18 20 22 25 29 32 34 38 43 47 50 54 57 63 70 75 79 76 72 70 66 64 61 52 44 47 47 38 22 29 39 38 31 35 50 58
7 6 7 7 8 10 12 15 18 20 23 27 30 33 34 37 41 46 48 53 60 66 70 73 78 77 73 67 64 63 55 48 44 56 66 51 50 33 36 39 42 33 25 32
7 6 6 7 8 10 13 16 19 22 26 28 30 32 36 39 41 46 49 54 61 69 77 75 75 73 69 67 65 60 50 50 55 70 64 62 58 53 49 49 43 37 36 53
9 8 9 11 13 14 17 19 23 25 27 30 31 33 36 39 43 47 52 56 63 68 71 78 78 68 65 66 64 58 53 49 57 63 68 64 59 62 66 63 49 49 49 51
13 12 13 13 14 17 20 21 23 26 28 29 32 34 38 43 47 49 53 65 69 72 74 72 71 66 67 67 65 60 54 53 53 69 71 72 74 67 67 59 53 57 53 57
16 16 16 16 17 18 21 23 24 26 30 31 32 34 37 41 46 51 57 67 71 75 76 73 67 67 66 66 67 61 56 57 55 69 74 74 75 74 70 75 69 63 64 69
17 17 18 19 20 21 22 24 26 28 30 31 32 34 36 41 44 49 60 68 72 72 74 75 74 74 65 64 65 61 55 57 60 75 79 84 80 84 76 73 69 72 64 63
18 19 21 23 23 22 23 23 25 27 27 29 30 31 33 38 44 49 59 66 70 70 66 69 69 67 67 66 61 61 58 61 62 75 82 80 79 76 81 76 77 74 74 65
21 18 21 25 25 26 25 23 22 25 29 31 32 32 33 36 39 45 51 54 61 62 63 60 60 59 62 62 56 59 53 56 55 56 69 80 80 85 81 79 77 77 80 78
23 18 22 23 24 25 25 24 24 24 25 26 28 33 34 35 37 39 44 48 53 59 63 65 62 59 60 60 66 63 61 62 64 64 66 68 74 76 85 91 92 95 91 92
22 21 23 23 23 23 24 25 24 26 25 26 28 28 30 31 36 37 39 46 52 56 58 61 62 57 65 68 69 63 67 69 73 71 72 73 75 79 80 81 85 86 94 101

GFSNW_250_spd_003.txt.gz
Wind_Speed
95 99 101 101 98 96 97 99 99 100 101 102 102 101 101 102 101 103 98 93 87 91 92 89 85 82 81 80 76 74 69 60 73 75 85 93 92 89 88 84 72 64 63 58
105 105 108 109 109 111 113 110 111 116 110 109 113 111 108 111 107 106 105 100 99 99 97 94 87 87 90 86 79 78 76 67 63 75 79 91 93 92 89 85 81 74 70 60
116 120 121 123 122 121 121 123 122 127 129 125 127 127 123 120 117 115 115 108 107 107 103 95 92 90 92 90 83 81 78 75 65 67 74 83 99 98 97 95 89 82 73 74
128 132 136 138 139 140 142 144 142 147 146 144 147 142 140 138 131 128 126 120 114 114 113 104 95 94 94 94 87 84 81 78 71 60 67 76 85 98 100 101 95 91 82 82
146 149 149 149 144 145 143 143 147 148 147 149 149 151 146 142 142 142 141 138 128 121 119 108 97 99 97 95 92 85 81 79 74 64 63 72 81 87 101 103 100 96 91 87
155 150 149 145 140 140 140 136 133 133 135 130 130 136 132 137 137 137 133 137 139 133 127 122 113 106 99 94 92 84 80 77 77 64 64 69 80 76 86 100 104 99 99 85
153 137 125 113 106 96 93 93 94 94 91 91 91 92 91 91 88 102 122 125 128 129 127 119 109 100 93 88 83 80 74 72 70 67 69 67 57 76 85 97 106 107 102 98
113 98 88 83 78 73 71 70 68 66 68 69 70 71 73 74 75 79 90 97 110 122 115 108 102 92 89 82 84 82 78 74 74 73 67 56 61 78 79 85 95 102 104 100
84 78 72 68 64 61 60 58 55 55 57 57 57 57 59 61 63 69 71 77 90 101 106 111 107 101 89 86 84 78 74 73 71 70 61 54 55 72 70 80 83 95 104 105
71 67 62 58 54 51 49 48 46 46 48 45 48 49 50 51 53 57 63 65 77 85 96 103 96 92 79 79 78 75 68 67 67 65 59 55 66 56 65 76 74 88 97 102
62 57 53 50 48 46 46 43 40 42 40 36 39 41 44 45 47 52 55 62 67 77 92 92 94 89 82 80 75 72 61 59 60 63 63 58 50 55 63 70 67 74 89 99
50 47 45 43 41 39 37 35 34 32 31 31 33 35 38 42 45 48 51 53 58 68 82 90 94 88 82 79 76 71 67 61 57 63 64 52 49 55 63 65 63 66 76 92
39 37 36 34 32 30 28 26 26 25 25 27 28 30 33 38 42 42 47 49 50 58 74 85 87 86 82 79 76 68 59 60 61 66 56 50 52 55 54 56 54 58 64 79
33 31 30 28 26 23 20 20 20 22 24 25 25 26 30 34 38 40 43 46 49 56 72 82 88 87 81 79 67 59 49 55 66 63 50 51 52 49 48 47 48 47 47 65
28 25 22 19 14 12 12 14 16 18 19 19 20 22 27 31 34 37 41 44 48 57 67 76 84 87 87 79 69 69 74 72 62 64 56 53 47 44 40 41 34 39 45 40
20 19 15 9 5 6 7 9 10 12 14 16 19 23 27 33 36 39 44 49 54 60 67 71 77 79 78 79 80 70 61 69 67 59 63 56 45 41 38 39 43 41 38 40
15 13 8 2 2 3 4 7 9 11 14 17 20 26 30 32 36 41 45 52 59 65 72 75 79 81 84 80 81 75 69 57 54 60 57 54 42 34 29 36 45 37 36 36
12 9 7 5 4 4 6 11 14 16 18 21 25 29 33 35 39 45 48 54 62 67 73 77 78 79 78 76 73 73 75 73 69 60 49 45 39 28 22 27 22 29 35 35
11 10 8 7 8 9 12 15 17 19 21 23 25 29 35 40 46 50 51 52 58 67 76 78 77 77 75 72 68 71 67 67 61 49 42 36 42 34 31 28 29 31 31 29
15 12 11 10 11 13 16 19 21 23 24 27 29 30 36 40 40 47 52 54 65 69 73 73 72 75 73 77 72 61 56 55 50 54 50 42 50 48 47 49 45 43 36 33
17 15 14 14 15 18 21 23 26 28 30 31 32 33 39 43 48 51 60 68 68 73 73 70 72 70 67 63 63 60 54 57 54 52 55 60 59 51 53 46 48 47 44 42
18 17 19 18 17 20 23 24 27 29 33 33 34 36 40 45 52 56 67 70 70 71 68 64 70 74 67 64 63 61 56 56 55 55 59 62 65 66 61 54 56 60 49 47
21 18 17 19 22 20 18 24 29 29 34 35 38 42 46 52 58 65 73 77 70 65 67 60 63 66 66 70 66 60 60 59 60 55 61 59 65 69 70 66 60 63 63 58
22 21 20 19 21 24 24 22 25 28 34 37 34 43 49 52 62 67 73 70 65 66 66 62 59 69 70 70 64 59 63 59 58 59 59 61 69 71 73 67 65 70 71 73
22 22 20 22 23 22 23 28 30 29 31 35 37 39 46 56 63 71 75 77 65 68 67 64 64 67 64 64 63 57 60 61 60 59 56 53 57 70 81 80 79 79 77 74
23 20 17 20 24 25 22 23 30 33 35 33 33 41 48 54 65 69 70 74 70 68 70 70 69 64 62 62 59 59 60 66 69 67 65 62 63 63 68 72 77 80 79 78
22 20 19 20 21 24 25 26 29 30 29 35 37 42 46 49 58 65 69 72 70 68 65 64 63 62 59 55 53 60 66 67 67 72 67 64 65 71 71 71 73 76 80 81

GFSNW_250_spd_006.txt.gz
Wind_Speed
93 95 95 95 95 99 101 103 102 108 105 104 102 98 95 96 92 92 93 94 90 86 86 84 83 78 78 78 72 69 66 67 66 59 46 53 55 66 83 83 76 72 68 59
101 104 105 107 108 111 112 111 109 116 117 112 115 112 108 109 107 105 107 107 103 98 96 96 89 88 83 85 80 77 72 71 69 66 51 48 43 52 69 84 83 82 79 63
113 116 118 120 121 122 122 121 120 124 129 126 128 128 123 124 119 117 118 121 115 111 106 104 98 95 93 95 91 86 84 77 71 67 64 68 61 57 61 74 87 83 82 73
121 126 130 133 133 133 134 135 133 136 132 138 143 141 135 135 134 137 136 131 126 125 119 113 107 105 102 99 93 90 89 83 78 69 72 75 66 59 58 66 76 89 82 84
134 137 139 142 142 143 145 147 148 150 149 149 151 149 144 142 146 148 147 141 137 138 126 126 122 115 112 107 99 97 94 90 86 82 76 77 72 66 50 56 62 80 85 90
141 144 147 149 149 148 144 139 134 123 117 110 108 109 109 113 114 120 128 137 144 143 140 133 126 123 117 109 107 105 103 97 95 87 81 81 77 47 61 60 65 72 84 87
147 144 136 128 119 109 105 99 93 87 86 84 83 86 87 91 90 85 101 114 118 130 130 134 133 130 121 118 113 110 109 100 97 89 85 85 54 67 67 62 62 69 73 77
112 105 100 94 91 86 81 76 71 70 70 68 70 71 72 71 74 80 82 81 89 108 114 122 128 131 130 124 119 117 112 101 96 92 84 71 68 66 65 64 55 62 76 79
85 81 79 78 74 69 65 62 59 58 59 57 56 56 57 59 58 62 65 73 79 71 81 99 111 121 123 119 117 116 113 104 89 81 76 65 56 66 61 67 57 68 74 77
75 72 69 66 61 58 55 52 49 48 50 43 48 48 49 49 51 53 54 57 63 73 74 75 79 93 103 116 113 111 107 97 83 69 73 65 71 64 63 70 57 59 63 72
62 58 54 52 50 48 45 44 42 42 42 37 42 42 41 42 43 45 50 52 58 61 65 70 70 81 93 100 105 106 101 86 76 77 70 69 70 53 56 51 59 54 59 63
49 45 44 42 41 38 36 35 34 35 34 33 35 35 36 37 38 41 45 49 48 53 59 64 65 72 81 93 95 84 86 81 74 70 64 70 66 64 66 67 59 54 53 62
41 39 36 34 32 31 29 28 26 25 25 25 25 26 28 29 32 36 37 36 38 44 51 58 60 63 73 75 74 72 76 77 72 67 73 70 63 62 59 54 49 53 52 53
33 29 27 25 24 23 20 18 17 16 15 14 16 18 21 23 25 27 27 34 40 45 49 51 57 62 67 70 70 72 71 68 64 66 67 55 54 52 50 45 49 48 42 43
24 24 23 20 16 13 10 7 7 8 9 11 13 15 17 20 22 25 33 37 38 44 47 50 58 69 73 69 72 74 69 63 63 59 53 51 56 56 46 48 48 38 39 39
25 24 21 14 11 9 6 3 2 5 7 10 13 16 19 21 25 29 31 36 41 45 50 53 66 74 76 73 74 69 65 62 57 50 47 49 52 52 56 50 41 34 35 35
22 21 18 13 10 9 9 8 9 9 10 13 17 20 24 27 29 32 34 39 44 50 54 64 75 78 75 74 74 71 63 56 54 53 47 46 50 63 55 43 40 32 33 34
19 17 15 14 14 13 12 13 14 13 14 16 19 24 29 32 34 37 39 42 50 57 62 69 72 71 73 74 71 63 65 60 56 53 62 68 53 39 38 43 42 31 35 35
20 17 15 13 15 15 18 20 20 19 18 22 28 34 38 40 42 42 44 47 53 57 67 72 73 76 73 73 71 63 66 69 72 61 53 53 46 37 39 41 38 34 35 37
19 16 14 14 13 16 20 23 24 25 25 23 26 34 40 41 45 43 43 47 56 61 69 75 72 71 67 63 74 73 74 75 79 74 62 54 53 52 50 36 34 35 32 27
19 18 16 15 16 17 21 26 30 31 29 26 26 31 42 46 49 49 50 57 64 68 70 74 73 73 76 63 63 81 68 66 72 76 75 72 65 59 47 43 48 46 45 41
21 18 17 16 15 21 25 29 32 33 35 35 37 42 45 50 54 56 54 61 67 68 70 75 77 76 75 73 69 67 69 64 62 66 68 65 66 62 52 50 51 49 44 47
21 17 16 16 16 23 26 34 36 41 40 41 45 52 54 54 63 59 55 59 63 63 67 70 75 72 77 75 77 68 66 67 73 70 68 71 70 65 50 56 55 58 47 54
20 19 18 17 18 17 21 29 36 44 44 49 50 55 59 58 60 57 52 57 60 60 60 63 67 70 72 74 74 65 63 66 57 62 72 68 60 51 60 54 60 56 55 51
21 19 18 19 19 20 22 28 38 41 52 53 60 58 60 63 63 58 55 54 54 56 56 59 61 63 64 64 62 69 66 61 57 56 56 54 52 54 54 56 64 67 64 61
22 21 18 18 20 22 26 27 28 33 50 54 59 60 65 67 66 59 54 50 53 56 57 59 61 62 61 62 67 63 63 67 65 61 58 56 54 57 59 60 61 69 69 71
22 21 21 20 21 17 18 27 32 36 43 53 54 59 66 66 61 60 56 51 50 54 56 49 47 51 53 55 59 63 64 63 64 66 63 60 61 62 63 63 67 69 73 70

GFSNW_250_spd_009.txt.gz
Wind_Speed
97 97 97 98 97 97 101 100 98 108 110 106 102 98 98 96 94 97 98 97 94 92 88 87 84 77 68 70 73 67 65 66 58 53 53 47 45 41 40 49 49 67 72 57
101 104 104 104 103 104 106 107 105 110 114 111 112 108 106 107 102 102 106 106 108 104 100 99 93 88 77 77 78 73 72 67 69 58 54 51 49 51 54 43 49 57 68 59
104 108 110 110 112 114 115 118 118 119 122 122 124 122 115 116 115 112 112 116 117 114 111 111 102 98 92 90 83 82 83 75 68 66 62 69 58 57 54 54 46 43 50 63
108 111 115 119 120 122 123 125 124 127 128 129 129 127 122 124 123 124 123 124 120 120 117 113 107 109 103 99 93 95 94 86 78 73 71 76 65 62 60 54 45 46 44 54
118 120 123 125 127 129 130 131 132 135 135 139 138 137 136 133 132 134 136 137 132 130 124 123 121 118 112 110 106 103 101 93 88 84 78 77 77 68 62 61 56 50 48 45
124 126 129 132 135 136 138 138 138 139 143 145 145 146 146 141 139 140 139 146 136 135 135 135 128 126 123 115 115 115 110 102 96 86 85 85 89 64 69 67 64 60 48 42
121 115 112 111 109 105 105 104 101 99 101 100 105 108 105 105 112 116 124 133 138 139 146 145 139 134 129 125 123 126 118 111 104 95 92 98 72 76 76 76 69 63 54 53
92 87 83 80 78 76 76 77 75 75 78 78 79 80 81 82 81 83 92 98 102 112 124 129 137 138 141 138 131 126 117 118 111 105 99 91 85 76 83 85 72 76 65 58
72 68 65 63 61 60 59 58 56 57 61 60 61 65 66 68 68 68 69 75 78 91 92 100 111 117 131 126 124 129 124 124 120 111 105 94 78 87 93 86 81 79 69 58
62 60 58 56 54 52 50 48 45 46 48 42 48 50 53 55 56 58 58 64 62 69 73 80 88 102 101 109 113 122 130 131 122 111 104 95 91 94 92 89 85 79 70 60
53 50 46 43 42 41 39 38 35 36 34 30 40 40 41 42 43 44 50 52 52 57 58 62 74 80 83 90 96 109 117 116 109 107 105 100 97 96 93 88 81 76 70 52
44 40 37 34 31 29 28 28 28 29 26 30 27 30 32 33 36 38 38 41 43 44 47 52 61 68 68 75 83 98 103 106 106 99 105 104 98 87 86 88 79 74 60 44
35 31 29 27 23 20 19 19 20 21 21 20 18 20 23 26 29 32 33 33 34 37 40 45 51 60 69 72 76 90 96 100 100 95 89 92 93 86 80 73 69 65 55 46
29 28 26 22 18 14 12 10 8 8 10 11 13 15 17 20 24 26 26 27 27 27 30 37 45 57 65 66 71 78 86 89 86 83 76 77 78 57 49 58 71 54 43 43
27 26 25 20 18 16 13 9 3 1 4 7 9 11 13 16 17 19 21 23 27 29 33 38 42 47 56 58 58 66 74 78 78 79 67 57 59 66 39 50 57 53 57 58
27 26 24 20 18 17 14 12 8 5 3 6 8 9 13 14 16 20 22 25 28 32 35 37 38 46 49 46 50 56 60 63 70 73 62 51 53 64 67 56 55 53 57 57
27 25 23 20 18 18 17 15 12 10 8 8 10 13 14 19 22 22 23 25 29 32 38 42 45 45 44 47 52 57 67 59 65 65 58 49 55 59 57 55 56 58 55 41
28 24 22 19 16 17 17 17 17 15 13 14 16 19 24 29 29 30 32 35 38 40 44 46 47 47 52 60 67 67 68 65 61 55 58 48 39 51 55 57 58 55 51 42
27 25 21 19 18 19 20 19 20 20 18 20 22 24 26 32 35 37 40 42 43 45 47 47 49 54 63 64 66 63 61 57 58 61 62 58 59 59 55 46 51 50 46 49
26 21 15 16 16 18 22 26 22 22 23 25 29 34 34 35 35 35 39 42 44 46 45 52 57 63 61 63 62 58 59 60 62 58 62 64 66 54 52 51 45 42 48 47
24 21 19 16 19 27 33 33 28 22 25 32 37 40 46 43 48 48 50 53 51 49 54 58 64 58 61 64 62 61 64 63 64 61 58 58 61 58 56 51 49 43 36 30
27 21 15 18 27 27 34 38 40 37 37 42 47 43 46 52 53 53 53 52 48 45 61 58 57 60 61 61 62 65 61 61 58 58 59 60 57 59 64 59 57 47 37 32
23 20 16 20 21 25 34 45 44 43 44 46 47 46 45 56 51 53 55 50 47 47 53 56 60 60 60 61 60 59 53 54 55 57 60 59 53 53 55 56 55 53 46 36
18 18 15 18 16 19 27 42 44 41 46 48 51 50 48 50 52 50 51 47 48 50 56 54 62 58 54 53 61 62 62 60 61 63 62 60 59 57 58 59 59 52 53 48
17 15 15 9 8 14 24 28 44 42 42 45 48 49 47 44 50 42 46 40 43 52 56 59 59 62 56 60 62 63 58 56 58 64 60 64 74 70 63 60 62 61 61 58
16 14 14 11 9 10 22 36 40 41 39 45 48 48 44 40 44 40 37 38 38 41 46 58 58 61 60 58 58 62 63 63 62 59 62 61 62 65 66 66 67 70 70 66
17 17 15 13 15 18 27 34 38 36 35 40 47 44 42 38 37 33 31 34 33 38 40 50 59 63 68 65 64 66 68 69 70 65 66 69 67 68 67 68 68 69 69 67

GFSNW_250_spd_015.txt.gz
Wind_Speed
89 90 91 92 93 94 93 93 93 91 91 93 99 97 98 97 98 98 96 94 91 89 86 82 81 79 79 70 67 66 62 55 55 51 48 46 40 33 28 18 28 24 18 31
100 102 103 102 102 101 99 98 98 96 95 96 96 102 103 103 103 104 102 100 99 97 96 94 88 86 86 80 74 71 67 61 58 62 59 53 45 40 32 27 32 21 24 39
112 113 113 111 110 108 105 101 98 98 96 101 99 99 103 107 107 109 108 107 105 102 101 100 100 95 92 89 83 80 76 70 64 61 67 62 53 47 41 35 26 31 26 38
106 109 109 109 109 108 107 107 107 104 104 101 102 102 102 106 110 111 111 110 107 108 107 106 103 100 96 94 91 88 84 77 74 68 66 69 61 53 46 35 35 29 38 37
90 89 86 86 86 90 92 93 93 98 107 108 107 105 105 106 108 111 113 111 112 113 111 113 110 106 101 99 97 97 91 86 81 73 72 74 66 58 50 46 45 43 40 32
71 68 65 62 62 64 66 71 76 81 82 91 104 110 111 111 111 111 112 112 113 113 112 114 115 114 110 106 104 102 98 94 88 80 80 79 72 54 57 55 52 51 44 46
61 57 54 52 50 51 52 57 60 64 69 72 80 89 103 115 117 116 115 113 112 115 113 114 115 116 116 115 111 108 103 99 94 84 87 86 63 71 71 66 60 56 53 53
52 48 46 45 44 43 44 45 48 53 57 59 65 70 78 92 106 116 121 120 117 115 116 113 113 113 113 112 111 111 107 108 99 95 91 81 77 81 81 76 67 62 54 54
47 43 40 37 34 32 33 33 37 40 41 46 52 56 63 71 81 92 105 111 116 119 119 118 117 113 113 111 111 111 114 110 108 101 95 89 83 83 83 83 76 66 61 59
48 44 41 38 36 33 31 30 28 28 31 37 40 44 49 56 64 71 80 90 99 111 122 124 121 117 116 113 113 112 114 114 111 105 101 94 91 89 86 89 72 73 70 67
47 41 37 35 33 31 29 27 23 22 23 23 27 32 38 44 50 56 64 69 76 85 97 109 116 123 125 122 118 119 120 118 116 108 103 98 94 92 93 87 81 77 76 75
44 38 34 32 30 27 25 23 20 16 15 15 18 22 28 34 39 45 53 57 61 68 74 82 88 100 115 127 126 123 121 117 115 112 107 100 98 97 97 90 87 83 83 79
40 36 33 32 29 26 23 21 19 14 10 9 12 17 21 24 29 35 40 44 49 55 58 61 69 75 82 97 110 120 123 122 119 118 113 105 106 100 100 90 90 82 80 81
39 36 34 33 32 28 24 20 17 15 13 7 2 7 12 17 20 24 29 33 36 40 43 47 54 61 68 75 83 90 101 116 122 126 122 114 108 104 101 96 91 82 84 84
37 37 38 35 31 27 25 23 20 19 16 12 8 3 2 6 8 13 18 22 25 27 31 35 44 49 55 60 66 75 82 90 99 112 119 119 114 112 110 107 95 91 93 92
36 34 32 33 33 28 26 24 23 21 21 19 13 10 7 8 8 9 10 14 19 22 26 31 33 38 44 48 55 61 62 73 71 78 96 108 110 104 74 103 72 86 95 101
34 31 29 30 31 32 30 29 27 25 23 21 17 14 11 13 14 13 13 15 16 17 20 22 24 29 33 38 41 43 47 53 59 65 79 98 101 100 104 68 58 77 88 87
32 30 27 29 32 32 33 31 29 27 24 25 25 23 20 18 20 20 16 19 19 19 19 19 18 20 24 31 38 36 40 48 57 63 75 84 91 76 59 50 54 61 66 68
29 25 24 27 29 28 28 28 31 33 37 34 34 36 36 31 28 28 26 25 23 24 23 21 20 21 23 25 28 33 40 45 54 60 62 80 92 72 80 66 63 63 54 49
26 24 20 21 24 24 24 27 31 36 33 36 36 34 40 41 42 42 42 42 46 46 38 33 30 24 24 24 26 28 33 44 53 58 66 78 89 90 79 84 77 57 46 42
23 24 20 21 19 17 14 18 24 32 37 37 35 36 43 47 51 52 52 54 53 54 49 46 43 36 29 24 24 29 32 37 45 51 62 75 89 102 91 86 91 59 51 54
19 19 16 20 11 12 18 18 21 24 32 31 31 33 45 52 57 57 56 57 55 52 46 43 41 35 31 27 21 25 25 25 33 53 65 70 85 91 90 94 69 69 64 61
12 14 17 10 12 16 14 17 21 24 27 27 26 35 42 50 49 52 54 57 51 47 45 43 36 35 30 30 27 21 26 30 32 47 53 73 79 74 72 57 60 59 58 63
13 13 9 9 8 14 10 17 19 19 22 26 19 29 35 39 37 41 53 47 47 48 44 46 42 36 33 31 28 21 18 21 30 38 45 48 50 53 56 60 68 57 57 59
9 12 6 6 4 5 12 16 18 22 20 19 19 20 31 36 32 32 37 39 41 44 41 46 39 39 43 40 36 38 37 36 32 32 35 31 35 49 57 60 63 56 56 56
8 4 6 5 3 6 16 18 15 18 18 13 8 9 17 26 29 28 27 28 29 30 36 40 38 32 33 39 40 41 40 42 37 34 39 40 42 41 43 57 56 58 61 52
11 6 4 8 3 4 9 15 10 11 14 8 3 5 6 1 17 28 30 31 30 30 31 35 35 33 35 36 37 36 37 35 38 41 37 45 45 47 47 52 55 61 62 60

GFSNW_250_spd_021.txt.gz
Wind_Speed
102 105 108 109 109 106 104 103 104 105 105 109 110 109 108 104 104 101 98 94 91 93 92 90 90 89 86 82 80 76 70 63 62 61 56 52 47 41 37 33 34 31 28 24
102 101 98 95 92 89 86 81 76 80 88 96 102 108 112 110 106 101 99 97 94 93 98 96 94 93 91 89 85 82 78 70 67 68 61 55 47 41 37 36 36 33 31 31
91 83 79 74 71 69 66 64 63 60 62 69 80 95 102 109 111 107 101 96 95 94 98 101 98 96 96 95 91 87 82 78 72 70 67 64 55 49 45 37 31 34 32 35
79 72 67 64 57 56 55 52 51 48 49 54 61 71 83 100 104 107 107 101 96 98 98 102 102 101 97 98 97 94 89 84 78 75 74 67 61 55 51 43 37 31 41 39
71 64 60 57 52 49 47 46 44 44 41 43 50 58 65 77 93 100 106 105 101 98 101 101 102 102 102 98 98 98 95 90 86 80 80 75 67 60 55 51 44 40 38 37
67 60 56 51 46 41 39 39 35 37 37 36 42 49 54 61 74 89 98 101 101 100 100 103 102 102 102 104 101 99 98 95 91 86 83 81 73 65 60 59 55 50 43 41
65 59 54 47 44 40 37 34 30 28 31 34 34 39 44 53 60 72 85 93 97 100 100 98 101 102 102 102 105 104 98 99 96 91 87 85 75 74 69 63 57 55 49 46
61 57 51 46 43 40 35 32 28 25 25 28 31 31 37 43 50 59 70 81 89 93 98 99 99 103 101 100 102 104 103 101 101 97 91 84 82 79 75 70 61 58 54 52
57 53 49 47 44 39 33 29 25 23 22 22 25 27 29 35 43 49 57 68 76 86 91 98 102 100 100 101 99 101 104 104 103 100 95 89 85 85 80 75 67 62 61 57
53 49 48 48 45 39 34 30 26 22 20 17 17 20 24 28 34 41 47 57 66 75 84 89 97 102 99 99 98 99 100 103 100 102 101 95 90 88 84 81 75 73 66 64
48 46 47 46 46 41 36 31 29 25 21 17 12 10 14 18 24 30 39 47 56 64 73 80 89 96 101 97 96 96 96 98 100 103 101 99 93 93 88 86 85 80 75 69
46 43 45 44 44 42 39 34 31 27 23 19 12 5 5 9 15 21 30 39 46 53 62 71 79 87 94 100 99 93 92 90 99 99 96 98 101 97 94 92 89 83 82 77
40 39 40 40 40 41 39 36 35 31 27 24 17 10 6 3 4 11 21 31 38 44 51 60 70 78 88 95 101 99 94 96 88 94 94 96 99 101 98 94 90 87 84 83
36 34 32 35 38 38 36 36 34 32 27 24 19 17 13 8 7 8 12 19 27 34 42 48 56 65 75 86 98 100 101 93 92 88 91 98 103 101 97 96 93 91 86 81
31 28 31 32 33 30 34 34 35 34 32 30 27 23 20 14 10 9 10 13 18 25 31 38 45 53 61 72 85 98 98 99 92 87 90 90 100 99 97 95 95 94 90 84
26 26 27 29 26 26 32 29 33 35 36 35 32 28 25 21 17 13 11 12 14 15 19 25 32 41 49 57 67 82 99 104 98 93 91 88 91 94 97 98 98 94 91 91
23 24 26 28 21 24 26 29 35 35 38 38 37 33 26 27 21 18 16 13 13 12 13 14 18 25 31 39 49 59 71 88 101 102 94 89 89 89 92 95 97 96 95 95
21 20 26 24 22 24 33 31 30 30 36 38 41 40 37 33 28 24 19 20 19 19 17 16 15 17 22 29 34 42 51 63 78 94 101 99 92 87 88 91 93 96 94 92
17 19 22 20 24 29 30 28 30 32 36 36 40 43 43 36 30 27 27 31 34 31 27 20 17 16 16 16 21 29 36 43 52 65 82 97 99 93 92 87 91 92 92 94
14 16 20 14 35 28 28 29 32 32 30 33 40 46 48 51 46 39 41 41 42 43 39 37 34 27 23 19 17 16 21 27 34 44 57 75 94 103 99 95 94 90 94 91
10 15 14 26 28 25 17 21 26 30 28 40 46 45 46 50 51 52 48 39 41 43 40 46 45 39 37 33 32 25 19 17 27 32 40 53 67 79 89 97 98 102 97 93
12 13 14 31 25 15 11 12 22 22 26 39 37 40 45 43 44 47 49 49 49 47 43 38 38 42 42 36 39 41 45 45 42 39 42 43 52 61 63 78 92 97 106 101
13 5 23 21 20 13 13 10 13 17 30 30 29 33 37 36 34 32 34 42 45 43 36 34 34 31 29 26 19 37 56 54 49 48 54 58 59 52 58 62 73 74 92 103
13 9 17 13 11 8 4 11 18 17 21 25 23 24 23 27 27 25 24 27 29 32 36 38 34 30 27 20 21 20 30 44 40 47 50 50 45 37 45 43 53 59 69 72
8 7 12 9 6 5 8 10 13 20 12 15 14 21 24 22 19 20 21 21 16 22 27 29 30 30 29 26 26 26 23 22 19 18 19 26 42 52 65 64 62 53 55 62
8 7 8 10 6 2 5 7 17 16 17 10 10 12 15 20 22 21 24 22 19 12 18 21 24 17 17 22 31 28 25 27 28 21 22 21 30 50 53 65 64 65 68 73
11 9 9 9 6 12 13 13 11 6 12 13 14 15 16 14 19 21 21 25 22 22 20 21 17 17 18 18 17 17 16 27 37 36 35 37 36 53 59 71 69 71 76 79

GFSNW_250_spd_027.txt.gz
Wind_Speed
85 90 88 82 76 73 70 65 63 63 61 57 54 56 60 66 83 91 99 104 98 102 97 90 101 109 107 92 90 87 84 77 75 62 66 64 60 53 48 43 42 38 41 39
90 84 79 74 67 59 59 57 54 51 53 50 41 46 48 56 64 78 97 108 103 103 93 93 102 107 92 96 95 94 90 80 77 76 74 66 57 55 52 52 52 45 45 35
94 84 75 69 62 57 54 53 50 50 44 42 38 35 40 46 55 66 84 99 102 104 100 98 103 98 93 104 103 93 87 84 80 76 67 71 65 59 57 55 51 48 46 43
95 84 75 67 62 59 56 52 48 44 41 37 36 33 33 38 47 58 73 87 95 103 107 105 105 96 93 103 104 103 96 90 85 85 83 79 69 67 62 57 56 52 50 49
96 84 75 66 61 57 55 51 46 42 36 32 30 30 28 32 40 50 65 77 88 97 109 107 102 93 92 102 96 99 98 93 92 91 86 75 67 64 63 62 61 61 55 51
96 83 73 64 59 54 54 52 44 38 33 31 26 26 24 27 35 44 55 66 77 90 101 105 102 97 90 96 96 96 96 99 98 89 85 77 73 69 68 66 64 63 58 58
94 79 66 59 56 55 51 48 43 36 31 26 24 21 20 22 28 39 48 57 67 80 91 97 103 99 94 90 96 99 98 101 97 90 91 81 75 80 78 73 70 70 65 62
90 76 63 56 53 49 46 46 43 35 32 25 22 18 15 18 23 32 40 49 58 68 82 92 97 103 101 95 94 99 99 98 98 95 92 84 83 86 84 77 73 74 71 67
84 71 58 51 45 43 44 45 41 40 35 31 26 20 12 11 18 25 33 43 50 60 72 83 92 103 112 106 99 100 100 97 96 98 96 92 93 93 86 80 76 75 73 69
76 60 51 45 38 38 41 42 39 41 41 37 30 21 13 5 10 19 26 33 42 50 63 76 87 97 109 111 107 102 102 102 97 98 98 95 98 93 89 86 90 81 77 71
72 57 46 36 34 35 40 41 39 41 42 39 32 27 19 11 1 9 18 25 34 42 52 64 77 89 101 108 110 106 100 99 101 100 100 98 97 94 94 93 88 79 75 70
66 50 39 31 29 34 37 38 40 41 45 41 35 30 25 16 8 4 10 16 25 34 43 52 63 77 89 106 107 108 102 97 98 103 99 99 98 92 91 89 87 81 75 75
59 41 33 26 27 31 36 38 36 39 44 42 35 31 27 23 15 8 4 9 17 26 33 43 53 66 77 94 103 108 105 99 95 92 93 97 94 88 85 88 88 85 83 82
50 34 26 22 25 29 33 35 35 39 42 37 33 30 27 26 22 15 10 9 14 19 26 35 43 54 67 79 95 99 103 103 98 92 91 91 94 83 82 89 90 93 89 86
40 28 19 16 22 24 29 32 35 39 36 40 37 33 31 32 29 24 17 13 12 15 20 27 36 43 54 67 81 94 99 101 102 97 94 87 89 96 95 94 94 96 94 92
32 19 13 16 17 20 23 29 31 32 37 41 40 36 38 39 40 36 29 23 16 11 14 21 27 33 44 56 69 84 95 100 100 101 97 92 85 86 91 94 94 93 96 97
22 12 10 15 13 15 18 25 29 32 35 42 41 42 45 43 46 45 41 33 26 20 14 12 15 22 35 49 62 76 89 96 99 100 96 89 88 83 88 90 90 94 96 98
13 4 5 12 8 12 14 24 27 28 32 34 27 35 39 41 43 40 42 39 36 28 21 16 13 11 21 34 51 69 85 95 100 100 98 98 93 85 83 90 92 91 91 92
9 4 5 6 2 10 11 22 27 21 19 22 22 35 41 42 40 38 40 39 38 33 31 23 17 6 17 27 38 51 67 83 94 98 99 98 93 90 84 85 89 91 93 94
7 2 8 4 5 2 10 23 29 22 18 14 24 35 32 32 30 29 32 34 27 30 33 32 25 10 7 8 21 29 41 59 77 89 91 89 90 89 85 83 87 92 96 97
9 2 4 4 8 5 14 20 23 21 19 22 22 23 24 25 23 23 20 21 23 32 36 33 31 37 31 21 8 12 23 37 56 75 83 82 80 82 82 82 85 86 91 99
8 6 8 12 12 14 12 14 17 18 19 17 18 18 19 21 20 17 18 19 24 24 28 26 32 37 42 34 24 22 20 24 31 43 59 73 79 79 79 80 81 84 88 89
10 7 6 7 14 18 19 17 16 14 9 9 13 19 16 16 17 17 17 19 23 22 18 21 28 34 43 41 34 31 22 24 27 32 39 53 67 78 84 86 84 85 85 84
13 14 16 19 17 12 15 19 20 18 16 16 15 18 18 15 12 16 20 20 19 17 18 18 23 26 29 35 31 32 33 27 25 31 40 47 59 74 84 90 89 89 85 85
12 14 14 14 16 19 18 17 17 23 25 22 22 20 22 22 20 24 23 22 22 18 19 19 18 18 28 27 27 28 35 40 35 36 32 39 54 65 78 88 94 93 91 88
11 14 16 17 16 18 22 24 27 25 26 28 27 28 28 25 25 24 24 28 30 28 25 24 26 22 27 28 27 20 41 37 42 43 43 36 42 53 62 74 89 95 97 97
12 13 14 18 20 20 20 22 25 28 30 33 35 33 33 33 34 33 31 30 30 30 38 35 31 33 32 32 35 27 26 38 42 47 46 44 46 50 54 61 68 77 87 91

GFSNW_250_spd_033.txt.gz
Wind_Speed
84 88 87 89 87 83 74 65 56 47 45 46 45 47 47 45 49 52 50 57 72 83 89 95 97 96 100 104 107 102 98 89 95 81 68 71 70 63 63 56 55 53 54 50
89 91 92 96 91 83 72 63 53 46 45 40 41 42 41 37 38 44 48 48 61 75 81 93 96 98 98 100 99 101 102 91 90 86 85 76 66 62 60 59 63 57 55 52
93 93 94 98 92 82 69 56 49 49 46 43 36 36 34 33 30 35 43 45 54 67 79 89 95 97 100 95 97 97 97 95 87 84 75 71 66 62 63 61 58 59 54 52
96 94 96 99 92 76 63 52 52 46 46 44 36 34 31 25 25 29 38 43 49 61 75 84 97 96 101 98 96 95 89 88 86 82 78 77 75 72 68 58 60 56 60 52
96 95 97 96 88 69 54 49 49 49 43 39 36 33 28 26 21 23 33 37 45 55 63 74 92 99 101 101 97 93 86 90 88 86 85 83 82 77 70 67 66 64 64 55
95 96 96 93 77 60 50 48 48 44 38 37 34 30 27 23 19 20 27 33 41 47 59 68 84 96 101 99 96 90 89 89 85 89 90 91 84 74 71 69 69 66 64 59
94 96 94 82 64 48 44 43 41 38 35 35 35 32 26 21 15 16 22 28 35 42 55 60 76 92 98 95 94 88 91 90 85 96 94 88 78 76 71 70 71 70 72 72
94 93 88 71 53 41 40 38 34 35 34 34 34 32 27 21 15 10 16 23 28 36 44 55 68 87 93 92 94 88 89 86 89 99 95 81 84 87 81 79 82 80 82 80
90 89 77 55 39 37 37 32 33 36 36 37 37 33 29 24 15 6 9 15 21 30 42 53 64 78 88 92 92 92 93 90 94 93 91 91 96 89 84 84 85 81 86 87
85 77 59 40 32 32 30 33 35 37 38 39 40 39 33 24 16 8 3 8 15 26 37 47 55 67 84 88 94 93 97 94 95 93 95 95 95 92 89 92 92 86 90 93
80 66 44 30 27 27 29 32 33 33 36 41 42 43 40 34 25 14 5 4 10 20 30 41 51 62 75 85 90 95 100 99 96 94 94 99 102 99 97 93 92 91 93 95
70 51 35 26 22 23 27 28 29 29 35 38 40 42 44 41 34 23 12 5 8 15 23 33 40 50 65 77 88 97 100 105 100 100 105 103 104 103 101 98 98 95 94 93
59 42 26 20 18 16 23 22 21 28 32 35 39 44 44 41 39 33 23 10 6 11 18 26 32 37 50 64 80 93 102 104 106 103 105 105 104 105 102 101 100 98 93 86
47 33 20 16 16 12 15 18 18 20 23 26 33 36 41 42 41 37 32 24 13 7 14 21 25 33 41 51 70 87 101 107 111 108 106 101 104 102 100 103 105 102 94 84
37 25 17 16 13 8 9 8 11 12 18 22 26 27 30 39 41 38 37 31 25 17 4 12 23 31 40 48 60 81 97 107 109 107 102 100 101 100 98 98 103 100 90 82
29 17 14 12 6 8 2 5 4 14 16 15 22 23 25 32 38 41 42 37 29 21 14 7 10 20 38 51 66 84 90 94 100 103 101 97 96 96 94 89 86 87 82 78
24 8 7 10 9 8 9 11 14 10 14 13 14 11 23 25 27 32 35 35 36 28 19 11 6 15 27 42 57 75 93 106 113 111 109 103 102 96 92 84 84 84 83 84
19 8 6 7 7 10 16 10 15 16 13 14 10 11 13 19 23 26 31 32 32 33 32 27 13 3 13 27 42 57 75 91 102 110 112 108 110 103 96 91 88 88 83 87
17 11 7 10 8 8 13 11 13 15 16 16 13 12 14 11 18 21 23 28 27 29 27 27 23 15 6 14 26 40 57 75 91 100 105 105 107 103 95 90 88 85 87 87
18 12 14 17 16 15 15 17 13 19 23 18 15 12 12 13 9 11 14 16 16 20 20 21 19 19 9 11 19 29 44 61 79 93 100 107 107 105 98 90 87 80 83 87
19 16 11 13 17 20 20 20 20 20 24 25 24 22 17 9 9 8 5 6 8 5 10 10 15 15 9 3 11 22 32 45 57 69 83 98 105 107 104 96 88 83 83 83
19 15 17 14 14 21 24 18 22 28 26 27 28 29 27 23 19 9 10 10 7 5 3 4 7 9 8 5 6 6 17 29 35 46 61 80 95 102 103 101 94 94 89 86
18 17 20 20 18 19 19 22 26 27 28 32 34 32 34 34 30 23 17 17 15 12 11 10 7 6 3 7 4 6 5 10 18 32 40 53 70 88 100 103 103 98 94 89
21 16 19 21 27 26 25 26 25 24 23 27 35 41 40 36 36 33 27 26 23 22 20 18 13 11 11 3 3 1 0 1 7 18 27 38 50 63 80 94 98 97 94 90
23 22 20 20 20 20 20 21 21 23 24 25 29 32 38 43 42 40 37 31 29 31 29 26 25 20 16 14 6 3 2 4 4 9 20 27 38 47 57 69 82 91 95 96
27 25 23 22 22 22 23 23 24 25 26 26 26 26 26 29 32 34 37 38 35 34 34 34 34 31 27 22 17 13 7 5 8 5 5 17 25 36 46 54 65 78 86 94
27 26 24 23 22 21 21 21 21 21 23 23 24 25 27 28 30 31 30 32 33 31 34 36 41 41 36 31 29 24 20 16 13 11 8 8 13 22 34 46 54 64 77 89

GFSNW_250_spd_036.txt.gz
Wind_Speed
75 80 79 87 83 86 86 80 69 56 51 51 49 44 44 44 46 48 50 51 48 57 72 88 97 107 106 107 106 107 107 97 102 92 80 86 88 83 80 71 61 58 62 64
76 78 85 89 84 85 84 76 68 54 52 50 48 46 43 38 38 37 40 45 44 48 67 81 90 102 104 105 104 106 108 103 102 91 92 94 90 79 74 71 71 65 65 62
79 77 87 85 84 86 80 70 59 56 48 45 44 43 42 40 30 33 34 36 41 43 59 71 81 95 101 105 105 104 104 100 101 95 90 85 78 76 71 70 69 67 62 66
78 81 83 85 84 82 75 63 54 48 47 45 41 39 38 35 30 27 30 30 37 38 54 65 78 88 99 103 105 105 97 98 103 96 90 85 78 74 73 68 65 64 69 65
76 79 79 81 84 74 62 52 46 44 42 40 40 38 35 31 29 25 23 28 31 36 49 60 72 83 95 99 104 102 95 98 95 92 92 87 80 76 70 67 67 71 73 66
75 75 76 80 74 62 50 43 40 37 37 38 38 37 34 32 26 20 19 23 27 32 44 55 68 77 89 97 99 100 98 93 90 95 95 90 85 82 75 71 75 76 76 69
71 71 74 71 60 47 36 35 35 36 37 40 41 39 33 29 25 17 14 17 23 29 41 51 61 72 84 92 94 99 98 93 90 94 97 94 89 85 81 82 85 84 78 77
67 71 69 60 45 33 28 30 30 35 40 43 43 40 36 30 23 15 7 11 18 24 34 44 58 70 78 89 88 94 99 96 94 95 95 94 91 87 86 84 85 84 81 81
67 69 61 49 33 25 24 27 31 37 40 43 45 44 39 32 24 16 6 4 13 22 34 46 57 67 72 85 85 91 97 95 94 93 96 95 95 93 92 86 85 86 87 84
67 63 52 39 24 21 21 23 34 36 40 42 45 46 43 35 24 15 9 3 11 22 34 44 55 63 72 82 84 92 96 97 100 95 96 94 95 97 92 92 89 86 88 86
63 54 41 28 17 17 19 25 31 32 38 38 44 48 46 40 26 17 11 8 5 15 25 36 54 61 68 74 81 89 94 94 95 93 95 93 94 97 96 95 91 88 88 85
56 46 32 20 13 13 16 23 26 27 34 39 38 45 45 39 32 19 14 11 10 12 18 28 39 46 56 65 79 90 95 96 96 97 95 92 94 96 96 90 88 87 89 83
48 37 22 14 10 10 12 19 22 24 32 42 36 41 45 40 34 25 19 14 13 13 16 19 27 36 46 59 76 88 94 96 98 97 93 91 91 93 92 94 91 89 87 82
39 29 17 12 9 9 11 14 18 25 26 35 33 36 42 42 38 34 26 18 15 15 19 22 21 22 31 47 64 83 93 95 98 98 95 91 90 92 91 94 94 92 87 82
33 20 16 13 11 12 12 15 15 18 22 23 30 27 32 38 38 36 34 29 21 20 20 19 24 31 29 39 52 76 90 96 98 100 98 96 92 91 94 92 92 94 90 85
28 14 15 13 10 10 14 15 18 17 18 26 22 20 24 29 32 35 36 30 31 26 21 22 20 29 37 43 46 62 82 89 94 99 100 99 96 95 92 95 101 95 94 88
25 14 12 16 13 13 13 17 18 20 20 19 21 18 21 22 27 34 40 41 33 27 26 22 15 15 25 40 54 59 68 81 93 101 101 100 99 97 98 94 103 99 99 92
24 15 10 15 18 19 17 18 21 23 24 29 25 23 17 15 18 24 27 31 33 32 29 22 15 17 15 27 41 51 68 86 89 98 103 105 104 103 100 104 96 88 102 91
27 19 12 13 20 21 20 21 22 22 21 26 29 30 28 25 22 16 17 19 20 22 24 22 17 13 7 17 29 43 56 73 91 101 107 109 107 107 106 104 102 101 94 89
27 22 16 15 22 23 26 26 28 28 28 26 30 27 29 30 22 16 8 4 6 10 12 11 13 10 4 5 16 31 46 63 79 96 107 115 116 113 113 112 110 102 99 100
26 22 18 19 19 19 23 28 30 32 31 30 32 29 29 28 25 22 18 13 9 6 1 4 4 6 8 4 4 19 33 49 67 81 94 107 115 118 117 116 112 108 105 103
28 23 18 20 19 19 18 20 23 28 33 34 34 39 37 31 28 25 27 22 19 14 13 11 7 6 6 9 9 4 10 27 43 54 69 86 101 110 113 115 111 110 104 97
27 25 22 20 23 26 27 28 27 26 28 31 34 36 37 34 32 29 27 28 28 24 23 19 20 16 10 12 13 10 9 10 16 32 45 58 76 94 105 110 110 110 105 99
25 23 22 20 19 20 21 23 24 23 23 23 24 23 26 30 31 31 28 26 28 27 30 31 26 24 23 18 16 14 15 13 13 17 31 42 52 67 83 99 106 108 107 102
27 27 26 25 24 24 24 24 24 25 27 26 26 26 26 27 27 27 27 26 26 28 31 33 35 33 30 29 25 19 20 18 18 17 22 31 41 52 64 77 91 101 107 106
30 28 27 26 25 23 22 23 24 22 23 26 28 28 29 29 28 28 26 26 24 24 26 31 37 37 35 36 34 31 24 23 22 19 20 26 31 41 52 61 72 83 93 99
31 34 31 28 26 24 23 22 22 23 24 24 25 24 24 26 27 28 27 27 26 24 23 25 30 36 40 38 37 38 36 31 27 25 21 21 24 33 35 44 55 64 74 83

GFSNW_250_spd_042.txt.gz
Wind_Speed
76 74 69 64 67 67 66 64 58 60 61 58 50 43 41 42 44 44 45 48 52 55 61 68 74 81 86 100 108 111 110 113 119 115 112 110 106 97 90 81 68 65 62 59
64 58 55 55 55 54 55 56 57 54 47 41 36 33 33 36 38 41 42 45 47 51 58 63 68 72 77 86 101 103 105 108 116 117 118 114 109 104 93 82 79 72 66 63
47 46 47 47 49 52 53 53 45 36 32 29 33 39 39 42 41 40 40 40 42 46 51 56 61 63 64 79 85 97 104 105 112 119 119 116 109 106 99 90 82 74 67 72
46 48 51 52 53 53 48 40 31 29 26 26 34 42 44 47 44 39 37 34 35 38 43 48 54 54 58 68 79 92 100 105 112 122 118 116 111 106 99 92 81 76 72 75
53 53 55 55 52 46 39 30 28 28 26 31 34 39 46 53 50 40 36 32 30 31 35 40 44 49 51 63 77 85 87 104 110 121 117 115 112 107 100 93 87 81 79 79
57 56 54 50 45 39 34 29 31 30 30 32 38 42 50 55 50 39 32 27 24 23 27 33 35 41 45 59 69 75 80 100 110 119 119 118 114 106 100 94 90 86 85 81
58 52 49 46 38 32 31 31 30 30 32 36 42 46 52 59 52 34 27 21 18 17 19 26 30 34 44 52 60 68 80 96 114 122 117 116 109 107 101 96 92 88 88 83
52 50 46 38 32 27 26 31 33 33 36 41 43 49 52 57 49 34 23 21 15 12 12 17 25 33 40 46 55 63 70 90 116 120 114 112 111 109 104 98 93 91 93 87
52 46 42 36 28 24 24 30 31 33 35 42 46 50 51 58 48 33 23 20 15 8 7 11 19 30 37 43 50 58 72 96 116 116 114 113 109 105 103 95 93 93 96 90
50 45 39 35 27 23 25 30 33 35 38 42 47 51 51 55 46 30 26 21 13 6 2 7 14 22 30 37 45 52 75 103 115 115 110 108 104 102 100 100 96 93 93 91
49 44 38 34 25 21 26 31 32 34 35 39 42 48 52 55 51 36 29 21 14 7 4 7 11 17 24 35 48 61 81 100 109 112 108 106 103 99 101 99 95 94 92 90
48 43 38 31 24 22 26 30 33 35 35 33 41 44 46 51 50 43 31 22 16 12 10 11 13 17 25 33 50 66 81 95 108 110 108 103 102 98 96 97 94 94 91 89
46 41 37 32 22 21 25 27 28 31 30 30 34 40 41 47 48 36 32 23 19 19 19 13 14 19 31 41 54 70 84 95 104 103 99 98 99 96 93 95 95 94 90 88
44 40 35 32 23 22 25 26 25 26 29 29 30 33 37 43 42 47 33 24 16 23 24 16 16 22 28 38 52 66 79 90 97 98 94 95 95 92 91 92 94 93 90 89
45 39 33 30 28 26 27 27 28 27 25 26 27 28 30 34 40 42 39 24 11 14 24 20 18 17 27 39 52 62 75 82 81 86 91 94 94 93 90 90 92 91 91 91
44 39 33 29 27 28 30 33 31 31 28 21 22 20 19 21 25 31 36 29 17 7 24 21 20 21 27 39 51 62 76 88 102 97 93 92 94 92 88 86 91 92 92 93
42 38 35 30 26 24 26 30 32 35 35 27 18 15 11 8 9 18 22 26 31 24 18 17 18 20 23 34 50 62 71 76 78 82 87 89 89 89 88 86 88 90 91 93
39 36 34 33 27 24 24 25 25 26 27 27 22 15 10 9 5 5 10 14 18 20 21 17 10 13 25 32 44 59 68 78 85 86 92 92 92 93 98 93 89 91 94 93
41 36 32 30 28 25 25 26 26 28 26 26 26 23 17 9 11 9 6 3 4 8 8 9 11 8 17 31 47 51 70 77 86 97 95 96 96 99 95 90 89 91 94 96
41 39 37 34 31 29 26 26 25 24 25 25 23 21 17 11 12 16 16 12 9 6 3 1 0 5 10 19 37 51 65 79 87 93 93 96 98 100 98 99 96 93 95 96
44 41 37 32 30 28 26 25 24 23 23 23 22 20 19 15 10 9 15 22 21 17 14 12 10 9 10 10 20 41 57 70 81 90 94 98 96 98 101 101 100 98 95 97
46 47 43 35 30 26 24 23 21 22 23 23 24 23 22 16 12 9 9 14 22 27 25 23 21 20 18 17 16 21 37 62 73 82 89 94 96 98 102 106 107 108 105 103
48 49 43 41 33 29 25 23 20 21 22 23 25 25 25 24 19 13 10 13 17 26 32 35 33 32 30 28 26 23 30 36 57 72 83 90 95 97 102 108 110 108 107 104
43 39 39 40 31 29 27 25 24 23 23 22 23 24 24 25 24 20 15 13 14 21 27 35 41 42 41 39 36 35 35 36 45 54 71 82 94 99 101 104 107 110 111 111
41 36 34 34 29 28 31 32 30 29 27 28 30 31 30 30 30 28 24 21 18 18 23 28 34 39 46 48 47 43 42 44 45 51 59 68 82 96 98 100 101 104 109 114
44 45 42 38 34 33 30 29 31 33 32 31 30 29 29 28 27 27 25 24 22 21 21 25 29 34 39 45 50 51 50 48 48 51 54 60 68 75 84 93 98 101 103 109
37 42 44 39 39 40 41 42 36 33 33 32 32 32 33 32 32 32 28 27 27 26 23 22 25 29 35 40 43 46 51 49 51 51 53 56 59 63 66 71 77 86 98 105

GFSNW_250_spd_048.txt.gz
Wind_Speed
59 53 53 51 46 39 39 39 39 38 38 37 38 42 46 49 52 56 60 63 65 67 69 71 75 77 80 84 89 94 95 100 108 110 108 115 110 118 113 106 95 87 85 81
61 58 55 49 41 38 35 35 35 35 33 34 35 36 39 42 45 49 55 58 61 64 64 63 65 68 70 75 78 81 87 93 100 106 113 120 120 120 122 114 103 93 88 81
63 63 56 45 38 36 34 30 28 27 28 29 28 30 33 37 43 49 54 59 62 64 62 62 62 67 68 67 70 75 78 85 94 103 112 122 120 123 125 119 108 100 90 87
69 67 57 46 39 35 31 28 25 25 24 27 28 30 34 39 43 48 54 58 58 56 53 54 56 59 63 63 63 69 73 78 90 102 110 108 115 124 125 119 110 101 94 89
74 69 57 48 38 34 30 26 25 24 26 27 29 33 36 39 42 49 48 49 47 45 43 42 46 48 49 52 56 60 66 73 83 94 107 105 110 120 126 121 113 107 98 89
76 70 57 48 38 34 30 26 25 27 28 28 30 33 35 37 44 48 38 37 34 32 31 32 34 38 42 44 47 52 57 67 73 84 98 106 109 112 121 120 115 110 100 94
78 70 56 48 40 34 30 28 27 29 29 30 33 32 35 37 40 37 28 27 25 24 24 26 29 31 34 35 40 46 51 61 65 73 92 97 95 105 116 119 117 113 109 100
79 67 58 47 40 33 29 26 27 29 29 31 32 34 36 38 35 30 20 18 16 15 16 17 21 24 25 29 32 38 45 55 60 69 88 85 97 100 111 118 114 114 110 103
79 66 58 46 38 33 30 27 29 29 30 32 32 36 36 40 37 34 27 24 15 11 11 10 13 15 17 20 26 30 38 46 55 68 70 71 88 93 100 114 115 115 111 108
78 65 57 46 38 33 29 28 30 29 30 34 36 38 36 36 40 32 33 22 12 7 7 8 8 9 13 15 19 23 30 40 49 53 57 66 77 89 94 104 110 113 113 109
73 63 54 47 38 34 31 29 29 27 29 33 34 36 34 33 36 41 33 23 13 7 3 2 7 8 8 11 13 19 26 33 42 50 59 66 75 82 90 98 106 115 116 113
66 60 53 45 40 34 33 30 26 26 27 28 30 34 34 28 28 34 30 30 16 12 9 6 8 14 11 16 17 21 28 33 38 44 52 61 69 71 86 98 108 116 115 117
64 56 50 45 38 34 32 27 24 23 25 25 28 28 27 25 23 27 31 28 16 9 12 13 15 17 17 18 22 25 28 33 36 43 49 54 61 73 87 98 107 116 117 118
63 56 49 43 39 34 31 26 23 23 25 26 26 28 28 24 21 20 24 29 15 12 10 13 19 20 20 22 25 29 31 35 39 45 48 54 64 75 84 95 105 115 118 116
63 57 45 39 37 31 30 27 25 24 25 27 26 26 25 23 19 17 17 20 18 7 8 11 17 23 22 24 27 34 40 41 42 48 50 54 63 72 77 92 101 114 116 115
62 56 43 38 37 30 26 24 24 22 20 22 23 24 26 24 19 15 15 16 15 14 0 8 15 20 23 25 27 33 43 49 50 53 55 56 74 88 91 98 102 111 113 114
58 54 43 38 37 32 28 23 21 21 20 22 24 24 24 22 18 17 15 15 12 11 7 4 9 17 22 27 29 34 47 53 57 59 60 68 75 82 86 94 89 109 110 110
56 54 45 39 37 34 28 24 22 22 21 21 21 20 20 17 16 14 14 15 14 11 6 3 7 13 22 28 33 34 38 54 59 61 60 70 79 92 100 105 108 109 109 108
55 50 47 41 38 37 34 29 28 27 25 22 19 17 16 17 16 12 13 16 14 14 10 5 5 14 17 25 32 37 42 43 54 62 67 68 76 94 98 99 97 105 110 110
52 49 44 43 41 38 35 33 29 25 23 20 19 18 19 17 16 17 15 15 16 18 16 15 12 9 16 23 26 33 39 43 47 55 64 67 68 87 96 109 107 107 109 107
51 52 45 44 42 41 39 37 34 34 34 34 31 29 26 22 20 16 14 15 18 18 20 20 17 14 13 19 25 31 36 40 44 48 58 66 74 90 97 99 101 101 107 108
49 49 44 45 44 45 43 41 39 38 38 37 36 34 31 30 30 24 18 15 14 17 20 22 25 23 20 19 21 32 38 43 43 46 56 67 74 86 100 101 106 107 107 109
46 42 41 46 46 45 45 45 41 38 37 36 35 34 34 34 33 31 27 25 20 18 19 22 23 24 29 27 24 28 40 46 47 47 50 60 74 95 105 107 106 107 109 111
43 40 38 40 41 44 46 48 48 44 40 36 33 32 33 33 32 32 31 31 27 22 19 20 23 25 23 29 33 32 36 45 50 49 53 51 64 80 94 105 109 109 101 112
39 34 33 37 40 43 45 47 50 51 50 46 39 39 40 38 36 34 32 32 33 30 25 22 20 20 24 23 28 35 38 41 45 52 53 55 61 71 90 105 108 114 116 115
37 29 28 32 37 40 41 44 47 49 52 53 50 48 44 34 27 28 24 27 30 28 26 26 22 17 18 23 26 30 36 41 46 47 51 55 58 67 80 100 107 110 114 114
35 25 27 32 36 40 42 44 47 50 54 57 56 52 48 46 44 38 31 28 25 24 22 22 21 20 17 19 24 28 32 39 45 49 49 53 57 61 69 86 103 109 110 111